STARLETTE

Last updated on Mon Nov 03 2025 00:03:54 GMT+0000 (Coordinated Universal Time)

1 07646U 75010A 25306.45376291 -.00000136 00000+0 74095-5 0 9999 2 07646 49.8236 279.5557 0205667 34.0007 327.3873 13.82346035563177
UTC large
Height (km)
Speed (km/s)
/
Latitude / Longitude
Inclination (degrees)
Orbital Period (minutes)
Azimuth
Elevation
Range (km)
Doppler Factor

Next 0 passes for location: London (51.5072 / 0.1276)

Sorry there are no passes over London.